NOAA 17 DEB

Satellite information

Favourite Embed

Satellite Type and Status

DEBRISIN ORBIT

Key statistics

Satellite NOAA 17 DEB at a glance.

Uptime

8474

Days in orbit

Revolutions

≈ 14.5

Per day

Orbit

SSO

Sun Synchronous Orbit

Inclination

98.7

Latest

Satellite identification and parameters

Extended collection of information and parameters for NOAA 17 DEB.

Object identification

Identified? True

Debris? True

Object name: NOAA 17 DEB

International designator: 2002-032AC

Object number (NORAD): 48611

Object ID (CCSDS): 48611

Country: UNITED STATES OF AMERICA (US)

Current information (Y/N): Y

RCS size: SMALL

Orbital parameters

Period: 99.152 minutes

Inclination: 98.7215 deg

SMA: 7096.243 km

Apoapsis: 724.101 km

Periapsis: 712.115 km

RAAN: 219.6722 deg

Eccentricy: 0.00084449

Argument of periapsis: 44.3663 deg

Mean anomaly: 315.8206 deg

Mean motion: 14.523124 rev/day

Mean motion (dot): 0.0002502 rev/day2

B* drag term: 0.0061393596 1/REarth

Two-line elements (TLE)

Creation date: Sept. 2, 2025, 11:42 p.m.

Reference frame: TEME

Reference center: EARTH

Epoch: Sept. 2, 2025, 9:42 a.m. UTC

TLE line 0: 0 NOAA 17 DEB

TLE line 1: 1 48611U 02032AC 25245.40470681 .00025020 00000-0 61394-2 0 9999

TLE line 2: 2 48611 98.7215 219.6722 0008445 44.3663 315.8206 14.52312400229639

Live tracking on map

Real-time ground track for satellite NOAA 17 DEB.

In-orbit conjunctions

A list of the most updated potential collisions computed for object NOAA 17 DEB.

Target Orbit TCA Probability of collision Miss distance Type
COSMOS 2251 DEB LEO 2025-06-15 15:25:42 0.0001215797 224.0 (m) DEBRIS
OAO 2 LEO 2025-01-07 10:23:24 0.0001505865 159.0 (m) PAYLOAD
FENGYUN 1C DEB SSO 2024-11-11 01:50:39 0.0002450763 260.0 (m) DEBRIS
SL-3 DEB LEO 2024-07-25 12:20:31 0.0001270456 60.0 (m) DEBRIS

Associated space launch

NOAA M carried weather imagers and microwave and infrared sounders, as well as a SARSAT search-and-rescue package. It had an on-orbit mass of 1475 kg.

NOAA 17 DEB was lifted into orbit during the mission ‘Titan II SLV | NOAA 17’, on board a Titan II SLV space rocket.

The launch took place on June 24, 2002, 6:23 p.m. from Space Launch Complex 4W.

For more information about the launch, click the button.

Launch to space Titan II SLV | NOAA 17
Titan II SLV | NOAA 17

Agency: N/A

Status: Launch Successful

Launch date: June 24, 2002, 6:23 p.m. UTC

Rocket: Titan II SLV

Launch pad: Space Launch Complex 4W

Location: Vandenberg SFB, CA, USA

...

Latest news about this satellite

There are no fresh news available about this satellite. Check back as we update our databases every day.


Newsletter sign-up

Weekly statistics, charts and insights to help you stay on top of the space industry.